Zurück zum Katalog

STARLINK-37419

AktivKommunikationVLEO
NORAD 69197·PAYLOAD·🇺🇸 United States

Gestartet May 25, 2026 von Cape Canaveral Space Force Station

Loading…

Nächste Überflüge (nächste 24 Stunden)

TLE

AktuellSource: CelesTrak SupGP

Epoche: Sep 14, 2026, 22:34 UTC

1 69197C 26114R   26257.94076389 -.00098652  00000+0 -29139-2 0  2578
2 69197  53.1570 139.6956 0001358  88.2355 241.5782 15.34448674    18

Verfolge STARLINK-37419 in Echtzeit mit AllMySat

Download on the App Store